Location: Miss�
(46.9484°N, 0.1922°W)
Time: 06:29:42
(UTC+00:00)

FALCON 9 DEB - Pass Details

Date: 02 March 2021
Orbit: 371 x 390 km, 53.0° (Epoch: 12 April)

Event Time Altitude Azimuth Distance (km) Brightness Sun altitude
Rises 19:25:19 0° 288° (WNW) 2,299 8.4 -17.4°
Maximum altitude 19:30:24 26° 2° (N) 816 4.5 -18.2°
Enters shadow 19:30:58 25° 21° (NNE) 850 4.5 -18.3°
